sat.trackr.live / text

‹ back to catalog

STARLINK-6257

NORAD 57088 · 2023-088AS

PAYLOAD ACTIVE UNKNOWN

§ Identity

Operator
Country
US
Launch date
2023-06-22
Launch site
AFWTR
Launch vehicle
Mass (kg)
RCS (m²)

Purposes: comms

External: N2YO · Heavens-Above · Gunter

§ Orbital elements

Epoch: 2026-09-19T21:44:01.959936Z

Period
94.27 min
Inclination
43.0002°
Eccentricity
0.0002250
Mean motion
15.27574689 rev/d
Perigee alt
481.5 km
Apogee alt
484.6 km
Semi-major
6,861.2 km
B*
3.4037e-7
RAAN
79.2510°
Arg perigee
247.3122°
Mean anomaly
112.7492°
Rev number
18,020

§ Raw data

STARLINK-62571 57088U 23088AS  26262.90557824 -.00000253  00000+0  34037-6 0  99902 57088  43.0002  79.2510 0002250 247.3122 112.7492 15.27574689180204

JSON: /api/v1/satellites/57088 · /tle

For live sub-satellite position, see the globe view (requires WebGL).

§ Visibility from observer

Set your observer location to see the next 7 days of passes ≥ 10°. The values pass through the URL so the page stays shareable.

No JS? Fill the form by hand. The geolocation button needs JavaScript.